This demonstration page uses our WeatherBlox Daily Observations layout. Learn more.

38.89511, -77.03637

Hourly Observations for April 6, 2015

Temp ( °F °C ) Dew Point ( °F °C ) Humidity (%) Winds ( mph kmh ) Pressure ( in mb ) Visibility ( mi km ) Precip ( " mm )
12:52 am 00:52 Mostly Cloudy 52 11.1 35 1.7 53 53 SSW 8 13 30.25 1024 10 16.0934 0 0
1:52 am 01:52 Mostly Cloudy 54 12.2 29 -1.7 38 38 Calm 30.25 1025 10 16.0934 0 0
2:52 am 02:52 Mostly Cloudy 53 11.7 30 -1.1 41 41 S 9 15 30.25 1024 10 16.0934 0 0
3:52 am 03:52 Mostly Cloudy 51 10.6 32 0 48 48 SSW 7 11 30.25 1024 10 16.0934 0 0
4:52 am 04:52 Mostly Cloudy 50 10 31 -0.6 48 48 SSW 5 7 30.26 1025 10 16.0934 0 0
5:52 am 05:52 Partly Cloudy 50 10 31 -0.6 48 48 SSW 3 6 30.27 1025 10 16.0934 0 0
6:52 am 06:52 Partly Cloudy 48 8.9 33 0.6 56 56 SSW 6 9 30.27 1025 10 16.0934 0 0
7:52 am 07:52 Mostly Cloudy 52 11.1 34 1.1 50 50 Calm 30.29 1026 10 16.0934 0 0
8:52 am 08:52 Mostly Cloudy 55 12.8 36 2.2 49 49 S 6 9 30.28 1025 10 16.0934 0 0
9:52 am 09:52 Partly Cloudy 59 15 39 3.9 48 48 S 9 15 30.28 1026 10 16.0934 0 0
10:52 am 10:52 Mostly Sunny 64 17.8 37 2.8 37 37 SSE 9 15 30.28 1025 10 16.0934 0 0
11:52 am 11:52 Mostly Sunny 68 20 38 3.3 33 33 S 14 22 30.26 1025 10 16.0934 0 0
12:52 pm 12:52 Mostly Sunny 71 21.7 37 2.8 29 29 SSE 14 22 30.23 1024 10 16.0934 0 0
1:52 pm 13:52 Mostly Sunny 77 25 32 0 19 19 SSW 21 33 30.2 1023 10 16.0934 0 0
2:52 pm 14:52 Partly Cloudy 77 25 39 3.9 26 26 S 13 20 30.17 1022 10 16.0934 0 0
3:52 pm 15:52 Partly Cloudy 76 24.4 44 6.7 32 32 S 18 30 30.14 1021 10 16.0934 0 0
4:52 pm 16:52 Partly Cloudy 77 25 45 7.2 32 32 SSW 18 30 30.11 1020 10 16.0934 0 0
5:52 pm 17:52 Mostly Cloudy 75 23.9 46 7.8 36 36 S 17 28 30.11 1020 10 16.0934 0 0
6:52 pm 18:52 Mostly Cloudy 74 23.3 46 7.8 37 37 S 16 26 30.11 1020 10 16.0934 0 0
7:52 pm 19:52 Mostly Cloudy 73 22.8 46 7.8 38 38 SSW 14 22 30.11 1020 10 16.0934 0 0
8:52 pm 20:52 Mostly Cloudy 67 19.4 49 9.4 53 53 S 12 19 30.12 1020 10 16.0934 0 0
9:52 pm 21:52 Partly Cloudy 65 18.3 50 10 59 59 S 12 19 30.13 1020 10 16.0934 0 0
10:52 pm 22:52 Mostly Cloudy 65 18.3 50 10 59 59 S 13 20 30.13 1020 10 16.0934 0 0
11:52 pm 23:52 Mostly Cloudy 66 18.9 50 10 56 56 S 12 19 30.14 1021 10 16.0934 0 0

Powered by AerisWeather